Probability
0 0 0 0 0 0 0 0 0 0 0 0 0 0 0 0 0 0 0 0 0 0 0 0 0 0 0 0 0 0 0 0 0 0 0 0 0 0 0 0 0 0 0
0 0 0 0 0 0 0 0 0 0 0 0 0 0 0 0 0 0 0 0 0 0 0 0 0 0 0 0 0 0 0 0 0 0 0 0 0 0 0 0 0 0 0
0 0 0 0 0 0 0 0 0 0 0 0 0 0 0 0 0 0 0 0 0 0 0 0 0 0 0 0 0 0 0 0 0 0 0 0 0 0 0 0 0 0 0
0 0 0 0 0 0 0 0 0 0 0 0 0 0 0 0 0 0 0 0 0 0 0 0 0 0 0 0 0 0 0 0 0 0 0 0 0 0 0 0 0 0 0
0 0 0 0 0 0 0 0 0 0 0 0 0 0 0 0 0 0 0 0 0 0 0 0 0 0 0 0 0 0 0 0 0 0 0 0 0 0 0 0 0 0 0
0 0 0 0 0 0 0 0 0 0 0 0 0 0 0 0 0 0 0 0 0 0 0 0 0 0 0 0 0 0 0 0 0 0 0 0 0 0 0 0 0 0 0
0 0 0 0 0 0 0 0 0 0 0 0 0 0 0 0 0 0 0 0 0 0 0 0 0 0 0 0 0 0 0 0 0 0 0 0 0 0 0 0 0 0 0
0 0 0 0 0 0 0 0 0 0 0 0 0 0 0 0 0 0 0 0 0 0 0 0 0 0 0 0 0 0 0 0 0 0 0 0 0 0 0 0 0 0 0
0 0 0 0 0 0 0 0 0 0 0 0 0 0 0 0 0 0 0 0 0 0 0 0 0 0 0 0 0 0 0 0 0 0 0 0 0 0 0 0 0 0 0
0 0 0 0 0 0 0 0 0 0 0 0 0 0 0 0 0 0 0 0 0 0 0 0 0 0 0 0 0 0 0 0 0 0 0 0 0 0 0 0 0 0 0
0 0 0 0 0 0 0 0 0 0 0 0 0 0 0 0 0 0 0 0 0 0 0 0 0 0 0 0 0 0 0 0 0 0 0 0 0 0 0 0 0 0 0
0 0 0 0 0 0 0 0 0 0 0 0 0 0 0 0 0 0 0 0 0 0 0 0 0 0 0 0 0 0 0 0 0 0 0 0 0 0 0 0 0 0 0
0 0 0 0 0 0 0 0 0 0 0 0 0 0 0 0 0 0 0 0 0 0 0 0 0 0 0 0 0 0 0 0 0 0 0 0 0 0 0 0 0 0 0
0 0 0 0 0 0 0 0 0 0 0 0 0 0 0 0 0 0 0 0 0 0 0 0 0 0 0 0 0 0 0 0 0 0 0 0 0 0 0 0 0 0 0
0 0 0 0 0 0 0 0 0 0 0 0 0 0 0 0 0 0 0 0 0 0 0 0 0 0 0 0 0 0 0 0 0 0 0 0 0 0 0 0 0 0 0
0 0 0 0 0 0 0 0 0 0 0 0 0 0 0 0 0 0 0 0 0 0 0 0 0 0 0 0 0 0 0 0 0 0 0 0 0 0 0 0 0 0 0
0 0 0 0 0 0 0 0 0 0 0 0 0 0 0 0 0 0 0 0 0 0 0 0 0 0 0 0 0 0 0 0 0 0 0 0 0 0 0 0 0 0 0
0 0 0 0 0 0 0 0 0 0 0 0 0 0 0 0 0 0 0 0 0 0 0 0 0 0 0 0 0 0 0 0 0 0 0 0 0 0 0 0 0 0 0
0 0 0 0 0 0 0 0 0 0 0 0 0 0 0 0 0 0 0 0 0 0 0 0 0 0 0 0 0 0 0 0 0 0 0 0 0 0 0 0 0 0 0
0 0 0 0 0 0 0 0 0 0 0 0 0 0 0 0 0 0 0 0 0 0 0 0 0 0 0 0 0 0 0 0 0 0 0 0 0 0 0 0 0 0 0
0 0 0 0 0 0 0 0 0 0 0 0 0 0 0 0 0 0 0 0 0 0 0 0 0 0 0 0 0 0 0 0 0 0 0 0 0 0 0 0 0 0 0
0 0 0 0 0 0 0 0 0 0 0 0 0 0 0 0 0 0 0 0 0 0 0 0 0 0 0 0 0 0 0 0 0 0 0 0 0 0 0 0 0 0 0
0 0 0 0 0 0 0 0 0 0 0 0 0 0 0 0 0 0 0 0 0 0 0 0 0 0 0 0 0 0 0 0 0 0 0 0 0 0 0 0 0 0 0
0 0 0 0 0 0 0 0 0 0 0 0 0 0 0 0 0 0 0 0 0 0 0 0 0 0 0 0 0 0 0 0 0 0 0 0 0 0 0 0 0 0 0
0 0 0 0 0 0 0 0 0 0 0 0 0 0 0 0 0 0 0 0 0 0 0 0 0 0 0 0 0 0 0 0 0 0 0 0 0 0 0 0 0 0 0
0 0 0 0 0 0 0 0 0 0 0 0 0 0 0 0 0 0 0 0 0 0 0 0 0 0 0 0 0 0 0 0 0 0 0 0 0 0 0 0 0 0 0
Wind_Speed
6 4 4 4 3 3 3 4 4 4 5 6 6 7 8 9 9 10 12 10 12 13 12 13 15 13 11 10 10 10 11 11 17 11 5 7 11 12 12 13 12 14 15
5 5 4 4 4 4 4 5 4 5 5 5 6 7 8 9 9 11 13 12 13 14 14 13 15 11 14 11 11 12 12 13 13 16 6 6 10 11 11 12 12 12 11
6 6 6 6 6 6 6 6 5 5 5 5 5 7 8 8 9 10 12 13 13 14 13 14 13 12 14 11 12 12 11 11 12 12 10 5 5 6 9 9 10 9 11
7 6 7 7 7 7 7 6 6 6 6 6 6 7 7 8 9 10 11 12 12 13 12 12 12 12 13 12 11 13 11 11 11 12 10 5 5 5 8 9 10 11 11
6 6 6 6 6 7 7 7 7 7 7 7 7 7 7 7 7 9 10 11 12 13 12 11 12 13 15 13 10 10 10 11 10 10 11 7 7 7 10 9 10 9 9
6 6 6 6 7 6 7 7 7 7 7 7 7 8 8 7 11 14 12 10 10 12 12 11 10 11 14 17 19 18 16 13 12 11 11 11 12 11 9 9 9 8 8
6 6 6 7 8 7 7 7 7 7 7 7 7 7 9 11 16 15 14 10 11 11 11 10 8 7 10 10 14 18 18 21 20 14 14 14 11 11 12 13 12 11 7
7 7 8 9 9 9 9 8 8 7 7 7 8 8 9 10 14 15 14 10 10 10 10 10 10 9 8 10 10 11 11 12 14 13 12 10 8 9 13 12 11 7 4
8 9 9 9 10 10 10 10 9 8 9 8 7 7 8 10 13 14 13 7 8 9 8 8 9 10 12 14 11 11 11 10 13 15 14 12 12 14 12 8 9 9 5
9 9 9 9 9 10 11 10 9 8 9 9 9 7 8 9 12 14 13 6 7 7 7 6 9 12 13 14 10 9 11 8 5 6 7 9 8 12 17 12 10 10 6
8 9 9 9 9 10 10 8 8 8 9 9 10 8 7 8 11 13 13 6 6 7 6 5 5 11 13 14 12 8 10 7 4 4 3 3 4 5 8 8 8 8 7
9 10 10 9 9 8 9 9 8 7 9 9 8 9 6 5 7 10 13 12 10 7 6 5 5 10 11 11 9 8 9 6 2 2 2 3 3 4 5 5 5 4 3
9 10 10 10 9 8 8 9 8 6 6 7 7 8 8 5 6 11 12 12 12 7 5 8 8 9 8 6 6 6 3 2 2 2 2 2 2 3 4 4 5 5 6
10 11 10 10 10 8 7 7 7 6 6 7 7 7 8 6 5 4 4 5 6 5 4 5 7 7 5 3 2 2 1 1 2 2 2 2 2 3 4 4 4 4 4
10 10 9 9 9 9 8 7 8 7 7 8 7 6 7 8 7 10 7 4 4 3 3 2 2 2 2 2 2 1 1 1 1 1 2 2 3 3 3 3 3 4 4
10 9 8 8 8 7 8 8 10 9 10 11 10 9 7 9 12 11 9 9 7 5 2 1 2 2 2 2 2 2 1 1 1 1 2 2 3 3 3 3 3 3 4
9 10 8 8 8 7 7 7 8 7 6 7 8 10 9 10 10 10 8 7 7 5 3 2 2 3 3 3 2 2 1 1 1 1 2 2 2 3 3 3 3 2 3
9 10 9 8 8 7 7 6 6 5 5 4 6 10 11 11 11 11 9 6 5 6 4 3 3 3 3 3 3 3 2 2 2 1 1 1 2 2 2 3 3 3 3
9 8 7 7 7 7 6 5 4 3 2 3 4 6 10 9 11 14 12 6 4 5 5 4 4 4 4 3 3 3 3 2 2 2 2 1 1 1 2 2 2 3 3
7 10 9 7 6 5 4 3 2 2 2 2 4 5 5 5 5 7 7 6 5 5 5 5 5 5 5 5 4 3 3 3 3 3 3 2 1 1 0 1 1 2 2
7 7 8 6 4 3 3 2 2 1 2 2 3 6 8 5 5 5 5 6 5 5 5 5 5 5 5 5 5 4 4 3 3 3 3 2 2 1 1 0 1 1 1
6 5 4 3 3 2 2 2 2 2 3 3 3 5 9 6 5 4 4 4 4 4 4 4 4 4 4 4 4 4 4 4 4 3 3 2 2 1 1 1 0 0 1
4 4 3 3 2 2 3 3 3 3 3 3 3 3 4 4 4 4 4 3 3 4 4 3 3 3 4 3 3 3 3 3 3 2 2 2 1 1 1 0 0 0 1
4 3 3 2 2 2 3 3 3 3 3 3 3 3 3 3 3 3 3 3 3 3 3 3 3 4 5 4 3 3 3 3 3 2 2 1 1 1 1 0 1 1 1
3 3 3 3 2 2 2 3 3 3 2 2 2 2 2 2 2 3 3 3 3 3 4 3 3 3 5 5 5 4 5 5 3 2 1 0 1 1 1 1 1 1 1
4 3 3 2 2 2 2 2 2 2 2 2 2 2 2 2 3 3 3 3 3 3 4 3 4 5 5 5 6 7 7 6 4 3 2 1 1 1 1 1 2 1 2
Wind_Direction
9 4 5 352 337 323 307 294 285 276 265 253 246 244 244 245 242 243 245 243 243 244 237 234 236 229 231 228 224 223 225 228 254 262 206 196 197 207 211 210 211 214 219
356 2 4 357 350 342 327 315 303 289 275 263 257 251 248 247 244 244 248 246 247 248 245 242 242 234 233 231 228 228 227 224 238 259 243 195 203 206 205 205 206 210 213
359 3 4 1 354 342 331 324 317 306 296 283 268 261 257 252 249 247 250 252 250 251 250 247 246 237 239 235 232 233 231 229 231 246 251 206 199 194 198 204 204 207 209
358 1 1 353 343 332 327 326 322 315 308 300 285 272 267 263 257 255 255 257 257 256 254 251 249 242 243 240 238 237 233 232 231 238 244 214 192 178 189 200 206 205 207
356 359 351 338 331 327 326 323 319 315 308 301 297 290 280 270 263 259 259 260 261 263 259 254 252 250 248 245 244 242 234 238 236 236 238 221 202 184 200 197 205 197 201
356 350 337 333 329 326 321 317 313 310 305 302 296 292 288 281 278 272 265 263 261 262 264 261 256 251 252 252 251 249 241 239 240 239 239 231 221 209 198 192 191 183 198
351 344 340 336 332 328 321 317 314 309 304 300 295 291 288 287 290 285 275 266 263 262 262 264 261 252 248 252 256 256 253 247 243 243 246 239 226 206 194 195 195 194 194
346 342 341 339 332 327 325 321 317 311 306 301 298 293 290 290 294 292 286 274 267 264 260 258 262 262 247 248 253 255 254 252 249 245 248 246 228 203 195 195 191 177 115
341 337 335 332 326 323 321 318 316 313 309 303 298 295 292 294 298 296 292 279 273 271 265 258 256 261 261 257 256 258 261 260 259 249 247 241 222 199 182 170 169 170 168
332 326 322 320 315 313 310 309 308 306 303 305 301 295 290 292 298 299 296 279 278 279 274 262 256 260 265 263 254 254 260 262 252 252 242 231 211 195 186 182 177 177 164
323 317 314 312 308 302 300 299 301 302 302 301 299 298 293 290 298 301 299 286 274 279 278 274 266 270 270 268 261 253 257 260 243 233 222 196 177 180 183 181 180 178 173
319 313 309 306 303 301 298 299 298 298 299 299 300 301 295 290 291 299 301 296 289 278 279 279 276 282 280 279 272 261 261 254 224 207 197 187 180 175 169 165 163 158 146
317 310 306 304 300 295 294 297 298 295 293 296 298 299 301 297 295 302 302 302 300 289 281 285 290 293 293 289 285 274 253 220 200 200 198 192 168 149 137 129 117 104 86
310 307 306 306 304 299 292 287 286 288 289 292 295 296 300 300 297 295 295 302 305 303 303 306 311 312 309 310 312 294 264 200 193 188 168 140 127 131 138 134 134 129 112
307 303 302 298 296 298 291 279 280 270 264 280 284 286 294 301 306 309 307 301 297 291 308 323 336 339 350 3 1 6 32 63 127 139 142 141 140 138 135 131 133 138 145
308 306 302 299 295 292 294 296 286 283 291 295 299 299 292 300 313 316 318 323 323 319 338 344 343 345 347 353 355 5 28 54 67 121 140 152 160 160 152 144 144 160 168
292 295 294 291 290 289 289 291 297 303 308 329 337 338 336 338 339 338 340 355 4 9 18 15 3 357 357 1 3 9 10 14 45 115 139 152 156 156 153 158 162 165 173
287 285 280 280 281 282 281 281 281 288 305 320 340 354 357 360 8 10 10 19 23 27 29 25 12 6 8 8 8 10 14 22 34 65 101 122 139 146 155 167 176 182 179
289 284 280 279 278 279 281 283 285 292 310 324 335 346 354 3 25 30 32 37 40 30 21 19 14 10 8 7 7 10 16 24 26 36 51 63 100 137 163 178 183 185 181
283 284 287 284 282 282 285 289 300 321 345 360 1 352 350 14 30 24 29 33 39 32 21 19 16 16 12 10 12 16 24 28 27 29 27 27 29 50 136 172 182 189 199
289 290 290 290 288 292 299 312 332 2 30 34 13 19 42 46 46 39 34 30 27 22 15 14 15 14 12 10 11 18 28 27 24 22 21 18 19 17 12 55 181 183 174
290 293 299 305 312 326 343 359 20 42 51 46 22 19 40 48 44 40 35 26 18 14 8 10 14 12 9 8 5 9 16 17 11 8 6 6 9 14 15 26 69 155 165
304 308 318 333 342 3 24 30 36 44 46 39 30 28 31 36 35 32 24 12 6 5 4 9 10 6 2 2 3 4 3 352 341 338 343 348 356 0 3 347 273 208 203
324 331 343 354 6 20 33 36 36 40 39 34 27 26 25 23 18 12 5 356 353 352 353 356 358 353 352 350 346 340 327 319 322 322 317 311 317 326 335 309 261 239 227
346 353 1 6 11 18 27 32 31 29 24 19 11 6 2 356 349 344 339 336 336 335 337 337 335 335 334 331 326 317 315 320 317 303 310 305 280 269 245 233 228 228 222
353 357 0 3 6 8 11 12 7 360 352 344 338 332 327 322 316 314 316 318 320 318 316 315 314 313 311 309 304 304 299 294 278 250 210 201 215 233 220 218 219 214 210